Dewpoint
71 72 74 74 74 75 76 78 78 78 78 78 78 78 78 78 77 78 77 77 77 76 75 74 74 73 74 73 73 73 73 73 73 72 72 71 71 72 71 71 73 71 72
70 72 74 74 74 76 76 78 78 78 78 78 78 78 78 77 76 77 77 76 76 76 74 74 74 74 73 73 72 72 72 73 73 72 71 71 71 72 72 71 73 70 71
70 71 72 75 76 76 77 77 77 77 78 78 78 78 78 77 76 77 76 76 76 76 74 74 74 74 73 73 72 71 72 71 71 72 71 71 70 72 73 73 73 72 72
70 70 72 76 76 77 77 77 77 76 76 77 77 78 77 77 77 76 75 75 75 75 74 74 73 74 74 73 72 71 71 71 71 70 71 70 68 72 73 73 73 72 71
68 70 73 76 76 77 76 77 77 77 76 77 77 78 77 77 76 75 74 74 74 75 74 73 73 73 73 73 72 72 73 73 72 72 70 68 69 71 73 73 73 73 73
69 72 75 76 76 76 77 77 76 76 76 76 76 77 77 76 75 74 74 73 73 73 74 74 73 73 73 73 72 72 73 73 73 72 69 70 69 72 72 71 73 73 73
69 72 74 77 77 77 77 76 77 76 75 76 77 77 77 76 75 74 73 73 73 73 73 73 72 73 72 72 72 72 73 73 72 71 72 70 71 74 73 73 72 73 73
69 71 72 76 77 78 76 76 77 76 76 76 77 76 76 76 76 75 74 73 72 72 73 73 73 72 72 72 73 74 73 72 66 67 72 72 74 74 73 72 72 73 73
67 69 72 73 74 76 77 76 76 76 76 76 77 76 76 75 74 74 74 73 72 72 72 73 73 74 74 74 75 75 73 71 66 70 67 71 74 73 70 72 72 72 73
68 70 70 72 73 75 74 76 75 76 76 76 76 75 75 74 73 74 75 75 72 71 72 73 74 74 74 75 75 74 74 73 70 66 66 67 73 74 71 71 73 72 72
68 69 70 71 73 73 73 74 75 75 75 76 75 76 75 73 72 73 72 74 73 73 74 73 76 75 75 76 75 74 73 69 68 69 67 71 74 74 73 73 73 73 72
67 69 70 71 72 72 72 73 74 73 72 72 73 72 73 71 72 74 73 73 73 73 72 70 74 76 74 71 72 74 70 69 69 67 72 74 74 74 74 73 73 73 73
65 67 69 71 72 71 70 73 73 72 71 70 71 72 72 73 73 73 71 73 72 68 68 72 72 73 71 68 66 64 63 68 71 71 69 72 74 75 74 73 74 73 73
65 67 68 70 71 71 72 72 72 71 70 70 72 72 73 73 71 71 72 73 72 70 70 73 71 70 70 67 66 65 60 60 68 70 72 74 75 75 74 74 74 73 73
66 67 68 70 71 71 70 69 69 69 69 69 71 72 70 71 71 71 71 72 71 69 72 72 71 70 69 69 67 66 59 59 60 70 72 75 74 75 75 74 74 74 74
66 67 68 70 72 73 72 72 71 70 68 69 71 72 70 72 72 71 72 71 73 72 72 71 70 70 71 69 69 67 59 62 62 64 71 72 74 74 75 75 74 74 74
66 67 69 70 73 72 73 72 72 69 66 65 69 72 72 72 72 72 71 72 71 72 72 69 70 69 67 67 66 64 61 62 61 60 63 70 72 74 75 75 75 75 75
65 68 70 69 71 72 72 73 71 69 69 69 71 73 73 73 72 72 72 70 71 70 72 71 71 68 67 67 61 62 57 61 61 60 63 68 71 70 73 74 74 74 74
65 69 69 68 69 71 72 73 71 70 72 70 72 71 73 73 74 72 73 71 71 72 69 69 67 68 64 62 59 59 61 60 62 61 62 61 63 69 71 73 73 74 72
67 68 67 69 69 69 73 71 71 72 71 72 72 70 73 73 74 73 71 72 72 71 69 68 67 65 63 62 62 59 61 60 59 62 61 58 60 69 69 68 70 71 73
67 67 67 69 70 70 72 71 71 72 71 69 69 71 73 73 73 73 72 71 72 71 67 68 66 62 63 63 59 60 62 61 60 57 56 55 56 62 66 68 69 71 71
66 67 68 68 74 71 72 71 71 71 72 70 71 73 72 73 74 72 72 71 72 70 67 64 62 63 64 64 58 60 58 59 61 56 56 54 57 60 62 64 63 69 70
65 68 68 68 73 73 73 72 72 73 72 72 70 74 73 73 74 72 73 72 69 66 66 64 63 63 60 64 60 60 57 56 60 60 57 55 56 55 59 62 60 60 69
65 68 69 70 73 72 73 71 71 69 69 69 71 71 73 74 73 72 72 72 69 68 67 65 65 62 64 60 64 61 60 58 56 56 60 56 57 55 55 59 60 58 66
64 67 71 71 71 72 73 71 71 70 69 71 71 70 73 74 73 73 73 71 67 65 67 66 64 62 64 64 62 63 62 61 59 54 54 56 60 59 59 55 59 59 59
64 67 71 72 72 73 72 73 72 71 70 68 68 72 72 71 72 73 73 68 66 65 67 65 65 65 64 64 63 63 62 58 58 56 56 54 54 57 59 60 56 56 60
Lifted_Index
-0 -1 -2 -2 -2 -3 -4 -5 -6 -6 -6 -6 -7 -7 -7 -7 -7 -7 -7 -7 -6 -6 -6 -5 -5 -5 -5 -5 -5 -4 -4 -4 -4 -3 -3 -2 -2 -2 -2 -3 -3 -3 -3
-0 -1 -2 -2 -3 -3 -4 -5 -5 -6 -6 -6 -7 -7 -7 -7 -7 -7 -7 -6 -6 -6 -5 -5 -6 -6 -5 -5 -5 -4 -4 -4 -4 -3 -3 -2 -2 -3 -3 -3 -3 -3 -3
-1 -1 -2 -2 -3 -4 -5 -5 -5 -6 -6 -6 -7 -7 -7 -7 -7 -7 -6 -6 -6 -5 -5 -5 -6 -6 -6 -5 -5 -4 -4 -4 -3 -3 -3 -2 -2 -3 -3 -3 -3 -3 -3
-1 -1 -2 -3 -4 -4 -5 -5 -6 -6 -6 -6 -7 -7 -7 -7 -7 -6 -6 -6 -5 -5 -5 -5 -6 -6 -6 -6 -5 -5 -5 -4 -4 -3 -3 -2 -2 -3 -3 -3 -3 -3 -3
-1 -1 -2 -3 -4 -4 -5 -6 -6 -6 -6 -6 -7 -7 -7 -7 -6 -6 -6 -5 -5 -5 -6 -6 -6 -6 -6 -6 -6 -5 -5 -5 -4 -4 -3 -2 -2 -3 -3 -3 -3 -3 -3
-1 -2 -3 -4 -4 -5 -5 -6 -6 -6 -6 -6 -7 -7 -7 -7 -6 -6 -6 -5 -5 -6 -6 -6 -6 -6 -6 -6 -6 -6 -6 -5 -4 -4 -3 -3 -3 -3 -3 -3 -3 -3 -3
-2 -3 -4 -5 -5 -5 -6 -6 -6 -6 -6 -6 -7 -7 -7 -7 -6 -6 -5 -5 -5 -6 -6 -6 -6 -6 -6 -6 -6 -6 -5 -4 -3 -3 -3 -3 -4 -4 -4 -3 -3 -3 -3
-2 -3 -4 -5 -5 -6 -6 -6 -6 -6 -6 -6 -7 -7 -6 -6 -6 -6 -5 -5 -5 -6 -6 -6 -6 -5 -6 -6 -6 -6 -5 -4 -2 -2 -2 -3 -4 -4 -4 -3 -3 -4 -4
-2 -3 -4 -4 -5 -5 -6 -6 -6 -6 -6 -6 -6 -6 -6 -6 -6 -5 -5 -5 -5 -6 -6 -6 -6 -6 -6 -6 -6 -5 -5 -4 -2 -1 -1 -2 -4 -4 -3 -3 -4 -4 -4
-2 -3 -3 -4 -5 -5 -5 -5 -5 -6 -6 -6 -6 -6 -6 -5 -5 -5 -5 -5 -5 -5 -5 -5 -6 -6 -6 -6 -6 -5 -5 -4 -2 -1 -1 -2 -4 -4 -4 -4 -4 -4 -4
-3 -3 -3 -4 -4 -4 -5 -5 -5 -5 -5 -5 -5 -5 -5 -5 -5 -5 -5 -4 -4 -4 -4 -4 -5 -5 -5 -5 -5 -5 -4 -3 -2 -2 -2 -3 -4 -5 -5 -4 -4 -4 -4
-3 -3 -3 -4 -4 -4 -4 -4 -4 -4 -4 -4 -4 -4 -4 -4 -4 -4 -4 -4 -4 -3 -3 -3 -4 -5 -5 -4 -4 -4 -3 -3 -2 -2 -2 -3 -4 -5 -5 -5 -5 -5 -5
-3 -3 -3 -4 -4 -4 -4 -4 -4 -4 -3 -3 -3 -4 -4 -4 -4 -3 -3 -3 -3 -2 -2 -3 -4 -4 -4 -4 -3 -2 -2 -2 -3 -3 -2 -3 -4 -5 -6 -5 -5 -5 -5
-3 -3 -3 -4 -4 -4 -4 -4 -4 -3 -3 -3 -3 -4 -4 -4 -4 -3 -3 -3 -3 -2 -3 -3 -4 -4 -4 -3 -3 -2 -0 -1 -2 -3 -3 -3 -4 -5 -6 -6 -5 -5 -5
-3 -3 -3 -4 -4 -4 -4 -4 -3 -3 -3 -3 -4 -4 -4 -4 -4 -4 -4 -3 -3 -3 -3 -4 -4 -4 -4 -4 -3 -2 -0 0 -1 -2 -3 -4 -4 -5 -5 -6 -6 -5 -5
-3 -3 -3 -4 -4 -4 -4 -4 -4 -3 -3 -3 -4 -4 -4 -4 -4 -4 -4 -4 -4 -4 -4 -4 -4 -4 -4 -3 -3 -2 -0 0 -0 -1 -3 -4 -4 -4 -5 -5 -5 -6 -6
-3 -3 -4 -4 -4 -5 -5 -4 -4 -3 -3 -3 -4 -4 -4 -4 -4 -4 -4 -4 -3 -4 -4 -4 -3 -3 -3 -2 -1 -1 0 0 0 -0 -2 -3 -4 -4 -4 -5 -5 -5 -5
-3 -3 -4 -4 -4 -4 -5 -5 -4 -4 -3 -3 -4 -4 -5 -4 -4 -4 -4 -4 -3 -3 -3 -3 -3 -2 -1 -0 1 1 1 1 0 0 -1 -2 -3 -4 -4 -4 -4 -4 -4
-3 -3 -4 -4 -4 -4 -5 -5 -5 -4 -4 -4 -4 -4 -4 -5 -4 -4 -4 -4 -3 -3 -3 -2 -2 -1 -0 1 2 2 2 1 1 0 -0 -1 -2 -3 -4 -4 -3 -3 -4
-3 -3 -3 -4 -4 -4 -4 -5 -4 -4 -4 -4 -4 -4 -4 -4 -4 -4 -4 -4 -4 -3 -3 -2 -1 -0 1 1 2 2 2 1 1 1 1 1 -1 -2 -3 -3 -3 -3 -3
-3 -3 -3 -3 -4 -4 -4 -4 -4 -4 -4 -4 -4 -4 -4 -4 -4 -4 -4 -4 -4 -3 -2 -1 -0 1 1 1 2 2 1 1 1 1 2 2 1 -0 -2 -2 -2 -3 -3
-2 -2 -2 -3 -4 -4 -4 -4 -4 -4 -4 -4 -4 -4 -5 -5 -5 -4 -4 -4 -4 -3 -2 -1 0 1 1 1 2 2 2 1 1 1 2 3 2 2 1 0 -0 -2 -2
-2 -2 -2 -3 -4 -4 -4 -4 -4 -4 -4 -4 -4 -5 -5 -5 -5 -5 -4 -4 -4 -3 -2 -1 0 1 1 1 2 2 2 2 1 2 2 3 3 3 2 2 2 1 -1
-2 -2 -3 -3 -4 -4 -4 -4 -3 -3 -4 -4 -4 -5 -6 -6 -5 -5 -5 -4 -4 -3 -2 -1 0 1 0 0 1 2 2 2 2 2 2 2 3 3 3 3 3 2 1
-2 -2 -3 -4 -4 -4 -4 -4 -3 -3 -3 -4 -4 -5 -6 -6 -6 -5 -5 -5 -3 -2 -1 -0 0 0 0 0 0 1 1 2 2 2 2 3 3 3 3 3 3 3 3
-2 -3 -4 -4 -4 -4 -4 -4 -4 -4 -4 -4 -4 -5 -6 -6 -6 -6 -5 -5 -3 -1 -1 -0 0 0 0 0 0 0 1 2 2 3 3 3 3 3 3 3 3 3 3